Login

Heerenveen

Pos Pair Lane Name Born Nation Time
1 13 I Mei Han 1998 China 4:05.07
2 13 O Merel Conijn 2001 Netherlands 4:05.86
3 2 I Mia Kilburg-Manganello 1989 USA 4:07.48
4 11 I Yuna Onodera 1998 Japan 4:11.22
5 10 O Kaitlyn Anne McGregor 1994 Switzerland 4:11.66
6 1 O Sandrine Tas 1995 Belgium 4:12.62
7 7 I Xiangyu Chen 1999 China 4:13.12
8 11 O Sofie Karoline Haugen 1995 Norway 4:13.46
9 2 O Beatrice Lamarche 1998 Canada 4:13.86
10 10 I Greta Myers 2004 USA 4:14.62
11 12 O Claudia Pechstein 1972 Germany 4:14.80
12 8 I Ji-Woo Park 1998 South Korea 4:15.63
13 12 I Laura Peveri 2001 Italy 4:15.63
14 9 I Aurora Løvås 2005 Norway 4:16.57
15 7 O Zuzana Kursova 2003 Czech Republic 4:19.48
16 6 O Marlen Ehseluns 2003 Germany 4:20.06
17 5 I Eva Luzia Lagrange 1993 Sweden 4:20.40
18 9 O Michelle Uhrig 1996 Germany 4:20.49
19 4 O Marte Bjerkreim Furnée 2001 Norway 4:21.31
20 6 I Chae-Won Park 2002 South Korea 4:21.64
21 8 O Shione Kaminaga 1999 Japan 4:21.72
22 5 O Olga Kaczmarek 1999 Poland 4:23.05
23 3 I Gemma Cooper 1987 Great Britain 4:23.98
24 4 I Veronika Antosova 2000 Czech Republic 4:25.39
25 3 O Abigel Mercs 2003 Hungary 4:28.35
DSQ 1 I Karolina Bosiek 2000 Poland 4:17.72

Info

What World Cup B-group
Discipline 3.000
Host Heerenveen
Nation Netherlands
Date Sunday 20.Nov 2022
Calendar 2022/2023
Air Temp 15.8 C
Ice Temp -10.6 C
Humidity 35.8 %